This is the latest recevied weather packets stored in our database for station/object IZ5MMH-14. If no packets are shown the sender has not sent any weather packets the latest 10 day(s).
| Time | Temp. | Humidity | Pressure | Rain* | Wind** | Luminosity | Snow |
|---|---|---|---|---|---|---|---|
| 1777310398 | 22.22° C | 80% | 1017.2 hPa | - | - | - | - |
| 1777308597 | 21.67° C | 82% | 1017.1 hPa | - | - | - | - |
| 1777306197 | 21.67° C | 80% | 1017.3 hPa | - | - | - | - |
| 1777305597 | 21.67° C | 79% | 1017.4 hPa | - | - | - | - |
| 1777304397 | 21.67° C | 78% | 1017.5 hPa | - | - | - | - |
| 1777303797 | 21.67° C | 77% | 1017.6 hPa | - | - | - | - |
| 1777300797 | 21.11° C | 79% | 1017.8 hPa | - | - | - | - |
| 1777300197 | 21.67° C | 79% | 1017.8 hPa | - | - | - | - |
| 1777299597 | 21.11° C | 79% | 1017.9 hPa | - | - | - | - |
| 1777298997 | 21.67° C | 77% | 1017.9 hPa | - | - | - | - |
| 1777295397 | 21.67° C | 72% | 1018.4 hPa | - | - | - | - |
| 1777294798 | 21.11° C | 68% | 1018.5 hPa | - | - | - | - |
| 1777292997 | 21.67° C | 79% | 1018.7 hPa | - | - | - | - |
| 1777292397 | 21.11° C | 87% | 1019 hPa | - | - | - | - |
| 1777291797 | 21.11° C | 86% | 1019.1 hPa | - | - | - | - |
| 1777291197 | 21.67° C | 80% | 1019.1 hPa | - | - | - | - |
| 1777289397 | 20.56° C | 96% | 1019.2 hPa | - | - | - | - |
| 1777288197 | 20.56° C | 10% | - | - | - | - | - |
| 1777287597 | 20.56° C | 99% | 1019.6 hPa | - | - | - | - |
| 1777286397 | 20.56° C | 98% | 1019.7 hPa | - | - | - | - |
| 1777285797 | 20.56° C | 96% | 1019.7 hPa | - | - | - | - |
| 1777285197 | 20° C | 95% | 1019.7 hPa | - | - | - | - |
| 1777284597 | 20.56° C | 97% | 1019.7 hPa | - | - | - | - |
| 1777282197 | 20° C | 96% | 1020.1 hPa | - | - | - | - |
| 1777281597 | 20° C | 96% | 1020.1 hPa | - | - | - | - |
* Rain since midnight (hover to see other rain measurements)
** Current wind speed in m/s (hover to see current wind gust speed)